| time (UTC) | temp C | wind direction | speed KPH | gust KPH | rain 1hr cm | rain 24hr cm | rain mn cm | humidity % | barometer mb |
| 20260502231527 | 13 | 87 | 1.6 | 9.7 | 0.00 | 0.00 | 0.00 | 73 | 1018.2 |
| 20260502230032 | 14 | 130 | 0.0 | 4.8 | 0.00 | 0.00 | 0.00 | 73 | 1018.3 |
| 20260502224524 | 14 | 130 | 0.0 | 3.2 | 0.00 | 0.00 | 0.00 | 74 | 1018.3 |
| 20260502223023 | 14 | 130 | 3.2 | 6.4 | 0.00 | 0.00 | 0.00 | 72 | 1018.3 |
| 20260502221520 | 14 | 131 | 4.8 | 8.0 | 0.00 | 0.00 | 0.00 | 70 | 1018.3 |
| 20260502220020 | 14 | 130 | 3.2 | 8.0 | 0.00 | 0.00 | 0.00 | 68 | 1018.4 |
| 20260502214517 | 15 | 127 | 3.2 | 11.3 | 0.00 | 0.00 | 0.00 | 67 | 1018.4 |
| 20260502213016 | 15 | 109 | 3.2 | 9.7 | 0.00 | 0.00 | 0.00 | 67 | 1018.5 |
| 20260502211517 | 15 | 109 | 6.4 | 11.3 | 0.00 | 0.00 | 0.00 | 66 | 1018.5 |
| 20260502210015 | 15 | 92 | 3.2 | 12.9 | 0.00 | 0.00 | 0.00 | 65 | 1018.5 |
| 20260502204514 | 16 | 103 | 1.6 | 11.3 | 0.00 | 0.00 | 0.00 | 64 | 1018.7 |
| 20260502203013 | 16 | 45 | 6.4 | 14.5 | 0.00 | 0.00 | 0.00 | 62 | 1018.7 |
| 20260502201513 | 16 | 40 | 6.4 | 11.3 | 0.00 | 0.00 | 0.00 | 61 | 1018.6 |
| 20260502200013 | 16 | 74 | 4.8 | 12.9 | 0.00 | 0.00 | 0.00 | 60 | 1018.6 |
| 20260502194512 | 17 | 197 | 1.6 | 3.2 | 0.00 | 0.00 | 0.00 | 59 | 1018.4 |
| 20260502193011 | 17 | 197 | 1.6 | 3.2 | 0.00 | 0.00 | 0.00 | 58 | 1018.3 |
| 20260502191510 | 17 | 197 | 0.0 | 0.0 | 0.00 | 0.00 | 0.00 | 55 | 1018.2 |
| 20260502190013 | 18 | 197 | 0.0 | 3.2 | 0.00 | 0.00 | 0.00 | 53 | 1018.1 |
| 20260502184524 | 18 | 197 | 1.6 | 6.4 | 0.00 | 0.00 | 0.00 | 52 | 1018.1 |
| 20260502183024 | 19 | 197 | 1.6 | 8.0 | 0.00 | 0.00 | 0.00 | 50 | 1017.9 |
| 20260502181509 | 20 | 197 | 1.6 | 9.7 | 0.00 | 0.00 | 0.00 | 48 | 1017.8 |
| 20260502163007 | 25 | 215 | 3.2 | 11.3 | 0.00 | 0.00 | 0.00 | 34 | 1017.7 |
| 20260502161505 | 25 | 234 | 8.0 | 16.1 | 0.00 | 0.00 | 0.00 | 33 | 1017.7 |
| 20260502151606 | 25 | 209 | 12.9 | 22.5 | 0.00 | 0.00 | 0.00 | 33 | 1018.3 |
| 20260502123036 | 25 | 220 | 8.0 | 16.1 | 0.00 | 0.00 | 0.00 | 32 | 1020.3 |
| 20260502121536 | 25 | 259 | 9.7 | 22.5 | 0.00 | 0.00 | 0.00 | 31 | 1020.5 |
| 20260502114522 | 24 | 277 | 6.4 | 24.1 | 0.00 | 0.00 | 0.00 | 33 | 1020.8 |
| 20260502113018 | 24 | 284 | 4.8 | 19.3 | 0.00 | 0.00 | 0.00 | 34 | 1021.0 |
| 20260502111520 | 23 | 259 | 3.2 | 19.3 | 0.00 | 0.00 | 0.00 | 34 | 1021.2 |
| 20260502110017 | 23 | 215 | 6.4 | 16.1 | 0.00 | 0.00 | 0.00 | 35 | 1021.4 |
| 20260502104510 | 23 | 239 | 6.4 | 16.1 | 0.00 | 0.00 | 0.00 | 33 | 1021.7 |
| 20260502103007 | 23 | 270 | 8.0 | 16.1 | 0.00 | 0.00 | 0.00 | 34 | 1021.8 |
| 20260502101505 | 23 | 255 | 6.4 | 14.5 | 0.00 | 0.00 | 0.00 | 36 | 1022.0 |
| 20260502071517 | 17 | 60 | 3.2 | 6.4 | 0.00 | 0.00 | 0.00 | 51 | 1023.3 |
| 20260502070013 | 16 | 36 | 4.8 | 9.7 | 0.00 | 0.00 | 0.00 | 53 | 1023.5 |
| 20260502064508 | 15 | 36 | 4.8 | 8.0 | 0.00 | 0.00 | 0.00 | 55 | 1023.6 |
| 20260502063010 | 14 | 36 | 3.2 | 6.4 | 0.00 | 0.00 | 0.00 | 58 | 1023.6 |
| 20260502061600 | 13 | 36 | 4.8 | 8.0 | 0.00 | 0.00 | 0.00 | 59 | 1023.7 |
| 20260502060055 | 13 | 46 | 4.8 | 8.0 | 0.00 | 0.00 | 0.00 | 60 | 1023.8 |
| 20260502054552 | 12 | 72 | 3.2 | 6.4 | 0.00 | 0.00 | 0.00 | 63 | 1023.8 |
| 20260502053054 | 11 | 72 | 1.6 | 4.8 | 0.00 | 0.00 | 0.00 | 66 | 1023.9 |
| 20260502051550 | 11 | 72 | 1.6 | 6.4 | 0.00 | 0.00 | 0.00 | 67 | 1023.8 |
| 20260502050040 | 10 | 66 | 1.6 | 6.4 | 0.00 | 0.00 | 0.00 | 70 | 1023.8 |
| 20260502044538 | 9 | 355 | 0.0 | 3.2 | 0.00 | 0.00 | 0.00 | 73 | 1023.7 |
| 20260502043030 | 9 | 355 | 1.6 | 3.2 | 0.00 | 0.00 | 0.00 | 72 | 1023.7 |
| 20260502041537 | 9 | 355 | 0.0 | 1.6 | 0.00 | 0.00 | 0.00 | 71 | 1023.6 |
| 20260502040025 | 9 | 355 | 1.6 | 4.8 | 0.00 | 0.00 | 0.00 | 71 | 1023.6 |
| 20260502034524 | 9 | 355 | 1.6 | 6.4 | 0.00 | 0.00 | 0.00 | 70 | 1023.6 |
| 20260502033026 | 9 | 355 | 1.6 | 4.8 | 0.00 | 0.00 | 0.00 | 70 | 1023.6 |
| 20260502031521 | 10 | 355 | 1.6 | 4.8 | 0.00 | 0.00 | 0.00 | 69 | 1023.6 |
| 20260502030022 | 10 | 355 | 1.6 | 6.4 | 0.00 | 0.00 | 0.00 | 69 | 1023.6 |
| 20260502024520 | 10 | 355 | 3.2 | 9.7 | 0.00 | 0.00 | 0.00 | 68 | 1023.6 |
| 20260502023018 | 10 | 13 | 4.8 | 11.3 | 0.00 | 0.00 | 0.00 | 69 | 1023.6 |
| 20260502021518 | 10 | 11 | 4.8 | 9.7 | 0.00 | 0.00 | 0.00 | 68 | 1023.7 |
| 20260502020012 | 10 | 15 | 1.6 | 6.4 | 0.00 | 0.00 | 0.00 | 68 | 1023.8 |
| 20260502014522 | 10 | 17 | 4.8 | 8.0 | 0.00 | 0.00 | 0.00 | 67 | 1023.9 |
| 20260502013008 | 10 | 24 | 3.2 | 6.4 | 0.00 | 0.00 | 0.00 | 66 | 1023.8 |
| 20260502011508 | 10 | 25 | 4.8 | 8.0 | 0.00 | 0.00 | 0.00 | 67 | 1023.9 |
| 20260502010005 | 10 | 24 | 6.4 | 12.9 | 0.00 | 0.00 | 0.00 | 69 | 1023.9 |
| 20260502004609 | 10 | 46 | 3.2 | 8.0 | 0.00 | 0.00 | 0.00 | 72 | 1024.0 |
| 20260502003001 | 11 | 80 | 1.6 | 4.8 | 0.00 | 0.00 | 0.00 | 72 | 1024.0 |
| 20260502001603 | 11 | 80 | 0.0 | 4.8 | 0.00 | 0.00 | 0.00 | 72 | 1024.1 |
| 20260502000100 | 11 | 80 | 3.2 | 8.0 | 0.00 | 0.00 | 0.00 | 72 | 1024.1 |
| 20260501234558 | 11 | 88 | 3.2 | 9.7 | 0.00 | 0.00 | 0.00 | 71 | 1024.2 |
| 20260501233107 | 11 | 90 | 3.2 | 9.7 | 0.00 | 0.00 | 0.00 | 70 | 1024.1 |